Vertical_Velocity
2 -0 1 1 -6 2 -2 -3 1 -2 -1 -2 0 1 0 -1 0 -3 0 -2 -0 -3 -3 -0 -3 -4 -3 -0 -1 0 0 -0 -0 1 -1 -2 -3 -4 0 1 -3 -1 -3 -3 2 0 1 0 -0
1 1 1 -9 6 3 -3 -1 -1 2 -2 -0 -1 -1 -1 -0 -1 -0 -2 -2 -2 -2 -0 -1 0 -2 -1 -0 -1 -1 -1 0 -1 -2 -1 -2 -0 -1 -2 2 -2 -2 0 -3 1 1 -1 1 -1
-0 -1 -6 4 3 2 0 2 2 1 -1 -4 2 0 1 -2 -1 1 -3 -1 -1 -2 -1 -2 -1 -2 -1 -0 -3 -2 -0 -0 -1 0 -1 -1 -0 -1 0 -2 -1 0 -2 -0 -0 0 0 1 -1
0 0 -3 10 2 -2 -2 -2 1 0 -1 -3 -2 -1 3 -1 -1 -2 -1 -0 0 -1 1 1 1 1 -0 1 0 -0 -2 -1 -1 -2 -1 -0 1 -0 1 -0 0 1 -0 1 -0 -0 0 -1 -2
-0 -9 1 -2 0 2 1 -0 -2 -1 0 -2 -1 -2 -0 -2 -1 -1 -2 -2 1 -3 -2 -0 -3 -2 1 -2 -2 -0 1 -1 -1 -1 -2 0 -0 1 1 0 1 1 1 1 2 -2 -1 -1 0
-3 -10 6 -3 -4 -1 0 1 1 1 -1 -2 -2 -2 -2 -3 -1 -2 -2 -2 0 -1 -1 -2 -2 2 -0 -0 4 0 -2 -1 -1 -1 -1 -1 -1 -0 -0 1 1 -0 1 1 0 1 -0 -0 1
-6 18 -5 -1 0 -0 -0 -1 -0 -0 1 -1 1 0 1 0 1 1 -1 -1 -1 -1 -1 -1 -2 -2 0 -2 2 -0 0 -1 -1 0 -1 1 0 0 -0 -0 0 1 1 1 1 3 1 0 2
-2 3 1 3 5 1 2 1 0 -1 -0 0 -0 -0 -0 1 2 0 0 0 -1 1 -1 1 2 -1 -2 -2 -3 2 1 -1 -1 -1 -2 -0 -1 -0 -0 0 2 1 1 -0 -1 5 -5 2 1
2 9 5 1 8 1 1 0 -0 -1 0 -0 -0 -0 -0 0 1 1 0 -1 1 0 -0 -0 1 2 -0 0 -2 -1 1 -2 -0 -1 -1 -1 -0 1 0 -0 -1 1 1 1 -0 2 -1 -1 0
-3 10 0 1 1 -2 -2 -0 -1 -1 -0 0 -1 -1 -1 -0 -0 1 1 1 -1 1 1 -0 -1 -1 -1 -1 -1 -1 -1 1 -0 -0 -1 -0 -0 -1 1 1 -0 0 0 0 1 2 1 -2 -2
1 1 -1 -2 -1 -2 -1 1 -1 -2 -0 -1 -2 -2 -2 -1 -1 0 0 0 0 -1 -2 -1 -2 -2 -1 0 -1 -2 -2 -2 -3 -2 -1 -1 -1 -1 -0 -0 -1 -1 2 -1 1 -0 -2 -4 -0
-0 0 1 -1 -2 -0 -2 -2 -4 -3 -3 -1 -1 -0 -2 -1 -0 1 -0 1 0 1 0 0 0 -0 1 1 -0 0 0 -1 1 -0 4 3 0 1 -1 -2 -2 1 0 -0 -0 1 1 2 2
-1 -2 -0 -0 -2 -3 -3 -3 -1 -2 -1 -1 -1 -2 -0 -1 -1 -1 -1 1 -1 -0 2 3 1 1 -1 0 2 0 -1 0 0 0 -1 -2 -2 -1 0 -2 -1 0 -2 -3 -2 -0 -2 -0 1
1 -3 -2 0 -1 -0 -2 -2 -0 1 -1 -1 -1 -2 -2 -2 -2 -2 -1 -1 -3 -2 -2 -1 -1 -0 1 2 1 2 0 -1 -1 -2 -1 -1 0 1 3 1 -1 -0 -0 -2 -0 1 -0 -0 -0
2 -1 -1 -1 -2 -2 -2 -0 -1 -1 -2 0 -1 -2 -1 -1 -1 1 -1 -2 -2 -2 -2 -0 -1 -0 2 -0 1 2 1 1 1 -1 -1 -2 1 -0 9 -1 -1 1 1 -2 -0 -3 -2 -1 1
4 0 0 -1 -2 -1 -5 -3 -3 -3 -1 -1 -1 -1 -1 -1 -2 -2 -2 -2 -1 0 4 -0 -0 -1 -2 -0 -0 7 -1 1 1 0 -0 -0 -1 1 -4 -4 -3 -2 1 -1 -2 -2 -0 -2 -1
-3 0 6 -1 -0 -2 -2 -7 -2 -3 -2 0 -1 -2 -2 -2 -2 -2 -2 -2 -2 -1 -1 -1 -3 -2 -2 -2 1 1 0 2 0 -0 0 2 2 -1 -0 -1 -4 -4 -3 -2 -1 -1 -2 -4 -3
0 9 0 0 -1 -1 -2 -2 -2 -3 -3 0 1 -0 -1 -2 -3 -3 -3 -2 -2 -3 -3 -2 -1 -1 0 4 -1 1 1 4 1 3 -2 0 2 -2 -1 -2 -1 -3 -3 -1 -2 -1 -4 -1 -2
4 -2 2 1 -1 1 -1 -0 -3 -1 -2 -2 0 -0 -2 -3 -2 -3 -2 -0 0 1 1 -0 -0 -0 1 2 0 -1 1 2 4 3 4 -2 -5 -4 2 -4 -0 1 0 -1 -1 -3 -0 1 -3
-2 -2 3 -0 0 1 1 -2 -0 -2 -0 -1 1 2 4 3 3 1 -0 -1 1 1 1 1 1 -0 -0 0 -2 1 -1 -1 1 -0 1 4 4 3 1 2 -1 -1 -3 0 -1 -1 -1 1 -2
-0 0 3 4 -2 2 3 -2 -1 -1 -2 -1 -0 -1 2 1 -0 -1 -2 -1 -1 -0 -1 -0 -0 -0 -2 -0 -3 -2 -1 -2 -1 -1 -0 -0 -0 -1 2 0 -0 -1 -3 -4 1 -2 -2 -0 3
4 -1 -6 -2 2 -1 0 19 -12 0 1 -3 -3 -2 -1 1 0 0 -1 -0 -0 0 0 -1 -2 -0 -1 -1 0 -2 -2 -1 -3 -3 -1 -3 -0 -1 1 2 1 1 -1 0 -3 -1 1 -2 -1
2 -2 2 -2 -4 -1 -0 -9 28 1 -1 1 -1 -2 -1 -1 1 1 -1 -2 -1 1 1 1 1 -0 -1 0 -0 0 0 -2 1 2 1 -3 -1 -0 1 1 -0 -1 -2 -1 -4 -1 -0 -1 -1
-1 2 -0 1 2 -2 6 -3 3 2 0 -5 1 0 -1 -5 0 -1 -2 -2 -3 -2 -2 -1 2 2 -0 -0 -0 -0 -2 -2 -2 -2 -2 0 -1 -3 -2 -1 -0 -2 -1 1 0 -4 -3 1 -0
-1 -4 2 5 -2 -2 -4 -5 2 -1 -2 -1 2 0 -0 -2 -2 0 0 -3 -2 -1 -2 -2 0 1 -2 1 -1 -1 -1 -0 0 -4 -4 -5 -3 -0 -0 -2 -3 -3 -1 -2 -1 1 -4 -3 1
-4 -1 9 -7 9 18 -2 -5 2 0 -1 -0 1 1 -2 1 -3 -0 0 -2 -3 -1 -2 -3 -2 1 -4 -1 -2 -1 -2 1 1 -0 -2 -1 -1 -3 -3 -2 -2 2 1 -1 -1 -4 -1 -4 -3
-2 -10 3 -4 -11 -9 15 -6 -1 -3 1 3 2 2 2 -1 -2 -1 -1 -2 -2 1 -0 -2 -2 1 -2 -2 -3 0 -0 -1 -3 -4 -4 -4 -2 -4 -3 -5 -4 -4 -6 -3 -3 -3 -2 -2 -1
-4 8 -6 -7 1 -6 14 -7 16 -2 -2 -0 -1 1 1 -1 -1 0 -1 -2 -1 -1 -1 -2 -0 1 -1 1 -2 -2 -3 -2 -3 -4 -3 -2 -2 -3 -2 -5 -5 -5 -5 -5 -4 -2 1 -1 -3
1 -2 -9 7 -8 2 2 14 -3 -2 -0 -2 -2 0 1 -1 -1 0 -0 -2 -0 -1 2 -1 -1 1 -1 0 -2 -1 -3 -3 -2 -1 -3 -2 -2 -3 -3 -5 -4 -2 -2 -2 -2 -4 -7 -2 -1
3 5 -0 -1 14 -5 -6 4 -6 2 -2 -3 -3 -2 -2 0 -1 -2 -2 -1 0 -0 -0 -2 1 -0 -0 -1 -3 -1 -2 -2 -1 -1 -0 0 -2 -2 -1 -1 -1 -2 -0 -2 -1 -4 -4 -1 -2
Height
5910 5909 5909 5907 5913 5911 5906 5906 5906 5905 5905 5904 5905 5905 5905 5906 5907 5910 5907 5906 5907 5908 5909 5910 5911 5912 5913 5914 5915 5915 5915 5917 5918 5919 5918 5917 5919 5920 5919 5920 5921 5921 5921 5920 5920 5921 5921 5921 5919
5913 5912 5911 5911 5921 5914 5909 5910 5910 5909 5908 5907 5908 5908 5908 5908 5909 5910 5911 5911 5911 5911 5912 5913 5913 5914 5915 5917 5917 5917 5918 5919 5919 5920 5920 5920 5921 5921 5920 5922 5923 5922 5923 5922 5922 5923 5922 5922 5921
5917 5916 5914 5922 5921 5917 5914 5914 5913 5912 5911 5909 5911 5910 5910 5911 5912 5912 5912 5913 5914 5914 5914 5915 5916 5917 5918 5918 5920 5919 5920 5921 5921 5922 5923 5924 5922 5923 5923 5923 5925 5924 5924 5923 5924 5925 5924 5923 5923
5920 5921 5921 5927 5921 5918 5917 5916 5916 5915 5913 5912 5912 5913 5915 5914 5914 5915 5915 5915 5916 5916 5917 5918 5918 5919 5919 5921 5922 5922 5922 5923 5924 5923 5923 5924 5923 5924 5924 5924 5924 5924 5925 5925 5925 5926 5925 5924 5925
5923 5923 5930 5927 5923 5922 5921 5919 5917 5918 5917 5916 5916 5917 5918 5917 5917 5916 5917 5917 5917 5918 5919 5920 5921 5922 5922 5923 5923 5923 5924 5925 5925 5925 5924 5924 5924 5925 5925 5925 5925 5925 5925 5925 5925 5926 5925 5926 5926
5926 5927 5935 5932 5926 5925 5923 5922 5920 5920 5920 5919 5919 5920 5920 5919 5919 5919 5918 5919 5920 5920 5921 5922 5922 5923 5923 5924 5924 5925 5925 5925 5925 5925 5925 5925 5925 5926 5926 5926 5926 5926 5925 5925 5925 5925 5925 5926 5926
5927 5935 5935 5933 5929 5928 5927 5925 5924 5923 5923 5922 5922 5922 5923 5922 5922 5922 5921 5922 5923 5924 5923 5924 5924 5925 5925 5924 5925 5926 5926 5926 5926 5926 5926 5926 5926 5926 5927 5927 5926 5926 5926 5925 5925 5924 5925 5926 5926
5929 5934 5936 5936 5934 5930 5928 5927 5927 5926 5926 5925 5924 5924 5925 5924 5925 5925 5925 5926 5926 5926 5927 5927 5927 5927 5928 5928 5928 5927 5928 5927 5927 5927 5927 5927 5926 5927 5927 5926 5926 5925 5925 5925 5925 5924 5924 5925 5925
5931 5939 5939 5936 5937 5932 5931 5930 5929 5928 5927 5926 5926 5926 5926 5926 5927 5928 5928 5928 5928 5928 5928 5929 5929 5929 5929 5929 5928 5928 5929 5929 5928 5928 5928 5927 5926 5926 5926 5926 5925 5924 5924 5923 5923 5924 5923 5923 5924
5933 5941 5937 5934 5934 5932 5932 5931 5930 5930 5929 5929 5928 5928 5928 5928 5928 5929 5930 5930 5930 5931 5930 5930 5930 5930 5930 5930 5930 5929 5929 5929 5929 5928 5927 5927 5926 5925 5925 5924 5924 5923 5922 5922 5922 5921 5922 5921 5922
5934 5936 5934 5934 5933 5932 5932 5932 5931 5931 5930 5930 5930 5929 5929 5929 5929 5930 5931 5931 5931 5932 5932 5931 5931 5931 5931 5931 5930 5930 5929 5929 5928 5928 5927 5926 5925 5924 5923 5923 5922 5921 5920 5920 5920 5919 5919 5918 5920
5935 5935 5934 5933 5933 5933 5932 5931 5931 5931 5930 5930 5929 5930 5930 5930 5930 5931 5931 5932 5932 5932 5932 5932 5931 5931 5930 5930 5929 5929 5929 5928 5926 5925 5925 5924 5923 5922 5921 5921 5919 5918 5917 5917 5917 5917 5917 5917 5916
5934 5934 5935 5934 5933 5933 5932 5932 5931 5930 5930 5930 5930 5930 5930 5930 5930 5931 5931 5932 5932 5933 5933 5932 5932 5931 5930 5929 5929 5928 5927 5926 5925 5923 5922 5921 5920 5919 5919 5917 5916 5915 5915 5915 5914 5913 5913 5913 5913
5934 5934 5935 5935 5934 5933 5932 5932 5932 5932 5931 5931 5931 5930 5930 5930 5930 5930 5931 5932 5932 5932 5932 5932 5932 5931 5930 5928 5927 5926 5925 5924 5923 5922 5920 5919 5918 5916 5916 5914 5912 5911 5912 5910 5910 5910 5910 5909 5909
5935 5935 5935 5936 5935 5935 5934 5933 5932 5932 5931 5932 5931 5930 5930 5930 5930 5931 5931 5931 5931 5931 5930 5930 5929 5929 5928 5927 5925 5924 5923 5921 5919 5918 5918 5917 5915 5914 5912 5910 5909 5907 5906 5906 5905 5905 5905 5905 5905
5934 5935 5936 5936 5936 5935 5935 5935 5933 5932 5933 5933 5932 5931 5931 5931 5930 5930 5930 5930 5930 5929 5929 5928 5927 5927 5926 5925 5923 5922 5920 5918 5917 5915 5914 5912 5911 5907 5905 5905 5905 5903 5901 5900 5899 5899 5899 5900 5900
5932 5937 5940 5937 5936 5936 5937 5935 5934 5933 5933 5934 5933 5932 5932 5932 5931 5930 5930 5930 5929 5929 5928 5928 5927 5926 5925 5923 5921 5920 5918 5916 5914 5912 5910 5908 5906 5903 5901 5900 5898 5898 5896 5895 5893 5893 5893 5893 5893
5933 5939 5937 5937 5938 5936 5936 5935 5934 5933 5933 5934 5934 5933 5932 5932 5931 5930 5930 5929 5928 5928 5927 5927 5926 5924 5923 5921 5919 5917 5915 5912 5910 5907 5905 5904 5902 5899 5897 5895 5893 5891 5890 5889 5887 5887 5886 5887 5886
5934 5934 5937 5936 5936 5936 5936 5934 5933 5934 5933 5933 5934 5933 5932 5931 5931 5929 5928 5928 5928 5928 5927 5925 5924 5922 5920 5918 5917 5914 5912 5909 5906 5903 5901 5899 5897 5895 5893 5890 5887 5885 5883 5881 5879 5879 5878 5878 5877
5928 5932 5936 5934 5935 5936 5935 5934 5934 5932 5933 5933 5933 5934 5933 5932 5932 5931 5930 5930 5929 5928 5926 5924 5922 5920 5918 5916 5914 5911 5908 5905 5901 5898 5895 5893 5891 5890 5888 5885 5883 5880 5877 5874 5871 5869 5870 5869 5867
5927 5930 5933 5935 5934 5934 5935 5934 5933 5932 5931 5931 5931 5932 5932 5932 5930 5929 5929 5928 5927 5926 5923 5921 5920 5918 5916 5914 5911 5907 5904 5901 5898 5894 5890 5887 5885 5882 5880 5878 5876 5872 5869 5866 5864 5861 5860 5860 5859
5928 5927 5929 5931 5932 5933 5932 5937 5934 5931 5930 5930 5929 5928 5929 5930 5929 5928 5927 5926 5925 5924 5922 5920 5918 5916 5913 5910 5907 5904 5901 5897 5894 5891 5886 5883 5880 5877 5873 5870 5867 5864 5861 5858 5855 5853 5851 5849 5850
5924 5923 5925 5927 5929 5929 5929 5930 5933 5929 5928 5928 5927 5927 5926 5926 5927 5926 5924 5923 5922 5921 5919 5917 5914 5912 5910 5907 5904 5900 5897 5893 5889 5886 5882 5878 5874 5870 5866 5863 5859 5855 5851 5848 5846 5843 5841 5839 5838
5919 5920 5921 5923 5925 5925 5928 5926 5929 5927 5924 5923 5924 5924 5923 5923 5923 5923 5921 5920 5919 5917 5915 5913 5911 5909 5906 5903 5899 5895 5891 5887 5884 5880 5876 5872 5868 5864 5859 5854 5850 5846 5842 5838 5835 5832 5830 5828 5828
5914 5916 5920 5922 5921 5924 5921 5921 5922 5921 5920 5920 5921 5921 5920 5919 5919 5919 5917 5916 5915 5914 5912 5909 5907 5904 5900 5897 5894 5889 5886 5882 5877 5873 5868 5863 5858 5852 5847 5842 5837 5833 5830 5828 5825 5822 5819 5818 5816
5910 5915 5920 5919 5921 5922 5916 5915 5917 5916 5916 5917 5917 5917 5916 5915 5914 5913 5912 5911 5910 5908 5906 5904 5902 5898 5895 5892 5888 5884 5880 5875 5871 5866 5861 5857 5852 5846 5840 5833 5828 5823 5819 5817 5815 5812 5810 5808 5805
5907 5908 5914 5914 5914 5913 5916 5911 5911 5910 5911 5911 5911 5911 5910 5909 5908 5908 5906 5905 5903 5901 5900 5898 5895 5892 5888 5885 5882 5877 5873 5868 5863 5859 5854 5851 5845 5839 5834 5828 5821 5816 5813 5809 5806 5803 5799 5795 5792
5903 5907 5908 5910 5912 5910 5910 5908 5910 5905 5905 5904 5904 5904 5903 5902 5902 5901 5900 5899 5897 5896 5893 5891 5887 5885 5881 5878 5874 5870 5866 5861 5856 5851 5847 5842 5837 5832 5826 5820 5814 5808 5803 5799 5795 5792 5787 5782 5779
5899 5900 5902 5906 5905 5907 5908 5908 5902 5901 5900 5899 5899 5898 5896 5895 5895 5894 5893 5892 5891 5889 5886 5883 5881 5878 5874 5871 5867 5863 5858 5853 5848 5844 5839 5833 5828 5823 5817 5811 5804 5799 5794 5789 5785 5780 5775 5770 5767
5895 5898 5898 5900 5901 5900 5899 5902 5897 5896 5896 5895 5893 5892 5891 5890 5889 5887 5887 5885 5884 5882 5880 5877 5874 5870 5866 5863 5859 5854 5850 5845 5840 5835 5830 5824 5819 5813 5807 5801 5795 5790 5786 5779 5773 5769 5764 5759 5756